Weather in Kiner'

Russia / Kirov Oblast     56°47′23″N   50°27′20″E
temp.,
°C
wind,
m/s
gust,
m/s
humid.,
%
clouds,
%
prec.,
mm/h
press.,
hPa
HPBL,
m
25 january, mon
mon2500:00+1ssw51098100 0.1 1023334
03:00+1ssw51197100 0.2 1023412
06:00+1ssw51197100 0.0 1023321
09:00+1ssw71395100 0.1 1025428
12:000ssw71394100 0.2 1025480
15:00−1ssw61192100 0.2 1026512
18:00−2ssw51192100 0.0 1026470
21:00−1s51090100 0.0 1026541
26 january, tue
tue2600:00−2ssw41092100 0.0 1026658
03:00−5s41093100 0.1 1026353
06:00−6s4995100 0.1 1026322
09:00−3s41195100 0.1 1025451
12:00−1ssw5992100 0.1 1025628
15:00−3s51094100 0.2 1024516
18:00−3ssw51094100 0.1 1024482
21:00−3s5993100 0.1 1024528
27 january, wed
wed2700:00−3ssw51094100 0.1 1024611
03:00−2s51093100 0.1 1023524
06:00−3s61193100 0.1 1022527
09:00−3s71292100 0.2 1022685
12:00−3s71391100 0.1 1021591
15:00−2ssw61292100 0.1 1020750
18:00−1s71496100 0.5 1019552
21:00−2s81594100 1.1 1018476
28 january, thu
thu2800:00−3ssw71393100 1.0 1018439
03:00−3ssw71493100 1.6 1018449
06:00−3ssw61293100 0.3 1017385
09:00−4ssw61194100 1.1 1018378
12:00−3ssw5993100 0.7 1019389
15:00−4s4891100 0.9 1019323
18:00−7s4893100 0.0 1019169
21:00−8sse3794100 0.0 1019189
29 january, fri
fri2900:00−7sse4893100 0.0 1019235
03:00−8sse4893100 0.0 1018233
06:00−9se4893100 0.0 1017211
09:00−8se4891100 0.0 1016265
12:00−6se4790100 0.0 1014320
15:00−6se3891100 0.0 1012346
18:00−7se3992100 0.0 1011280
21:00−5sse4992100 0.1 1009387